Butte, MT

8:47 AM MDT on September 25, 2016 (GMT -0600)
Mooney

Weather History for KBTM - January, 2014

Change the Weather History Date:

Wednesday, January 8, 2014

  Actual Average Record
Temperature  
Mean Temperature 29 °F 19 °F  
Max Temperature 37 °F 31 °F 48 °F (2002)
Min Temperature 20 °F 7 °F -45 °F (1937)
Degree Days  
Heating Degree Days 36 46  
Month to date heating degree days 362 371  
Since 1 July heating degree days 4080 4335  
Cooling Degree Days 0 0  
Month to date cooling degree days 0 0  
Year to date cooling degree days 0 0  
Moisture  
Dew Point 20 °F    
Average Humidity 72    
Maximum Humidity 92    
Minimum Humidity 51    
Precipitation  
Precipitation T in 0.02 in 0.80 in (1909)
Month to date precipitation 0.05 0.13  
Year to date precipitation 0.05 0.13  
Sea Level Pressure  
Sea Level Pressure 30.01 in    
Wind  
Wind Speed 3 mph (SSW)    
Max Wind Speed 15 mph    
Max Gust Speed 21 mph    
Visibility 10 miles    
Events      
T = Trace of Precipitation, MM = Missing Value Source: NWS Daily Summary

Daily Weather History Graph

Daily Weather History Graph

Search for Another Location

Airport or City:

Trip Planner

Search our weather history database for the weather conditions in past years. The results will help you decide how hot, cold, wet, or windy it might be!

Date:

Astronomy

Jan. 08, 2014 Rise Set
Actual Time 8:10 AM MST 5:03 PM MST
Civil Twilight 7:36 AM MST 5:37 PM MST
Nautical Twilight 6:59 AM MST 6:14 PM MST
Astronomical Twilight 6:23 AM MST 6:50 PM MST
Moon 12:07 PM MST (1/8) 1:08 AM MST (1/8)
Length of Visible Light 10h 00m
Length of Day
8h 52m
First Quarter, 56% of the Moon is Illuminated
Jan 8
First Quarter
Jan 15
Full
Jan 23
Last Quarter
Jan 30
New
Feb 6
First Quarter

Hourly Weather History & Observations

Time (MST) Temp. Windchill Dew Point Humidity Pressure Visibility Wind Dir Wind Speed Gust Speed Precip Events Conditions
12:53 AM 23.0 °F - 19.0 °F 85% 30.08 in 10.0 mi Calm Calm - N/A   Overcast
1:53 AM 23.0 °F - 19.0 °F 85% 30.05 in 10.0 mi Calm Calm - N/A   Overcast
2:53 AM 23.0 °F - 19.0 °F 85% 30.07 in 10.0 mi Calm Calm - N/A   Overcast
3:53 AM 23.0 °F - 19.0 °F 85% 30.06 in 10.0 mi Calm Calm - N/A   Overcast
4:53 AM 23.0 °F - 19.0 °F 85% 30.04 in 10.0 mi Calm Calm - N/A   Overcast
5:53 AM 24.1 °F 17.0 °F 19.0 °F 81% 30.04 in 10.0 mi Variable 5.8 mph - N/A   Overcast
6:53 AM 24.1 °F 18.2 °F 19.9 °F 84% 30.05 in 10.0 mi ESE 4.6 mph - N/A   Overcast
7:53 AM 21.0 °F - 19.0 °F 92% 30.06 in 9.0 mi Calm Calm - 0.00 in   Mostly Cloudy
8:53 AM 21.0 °F - 18.0 °F 88% 30.10 in 10.0 mi Calm Calm - N/A   Overcast
9:53 AM 24.1 °F 18.2 °F 21.0 °F 88% 30.09 in 10.0 mi SSE 4.6 mph - N/A   Overcast
10:53 AM 27.0 °F - 23.0 °F 85% 30.09 in 10.0 mi Calm Calm - N/A   Overcast
11:53 AM 28.9 °F - 23.0 °F 78% 30.06 in 10.0 mi Calm Calm - N/A   Overcast
12:53 PM 30.9 °F - 24.1 °F 76% 30.01 in 10.0 mi Calm Calm - N/A   Mostly Cloudy
1:53 PM 35.1 °F - 24.1 °F 64% 29.97 in 10.0 mi Calm Calm - N/A   Overcast
2:53 PM 36.0 °F 28.0 °F 21.0 °F 55% 29.98 in 10.0 mi WSW 11.5 mph - N/A   Overcast
3:53 PM 36.0 °F 28.5 °F 19.9 °F 52% 29.97 in 10.0 mi WSW 10.4 mph 20.7 mph N/A   Overcast
4:53 PM 34.0 °F 26.6 °F 19.9 °F 56% 29.96 in 10.0 mi SW 9.2 mph - N/A   Overcast
5:53 PM 34.0 °F 28.0 °F 19.0 °F 54% 29.96 in 10.0 mi SW 6.9 mph - N/A   Overcast
6:53 PM 33.1 °F - 18.0 °F 54% 29.96 in 10.0 mi Calm Calm - N/A   Overcast
7:53 PM 30.9 °F - 19.0 °F 61% 29.97 in 10.0 mi Calm Calm - N/A   Overcast
8:53 PM 27.0 °F 20.5 °F 18.0 °F 69% 29.96 in 10.0 mi South 5.8 mph - N/A   Scattered Clouds
9:53 PM 30.9 °F - 19.0 °F 61% 29.91 in 10.0 mi Calm Calm - N/A   Overcast
10:53 PM 28.0 °F 24.2 °F 19.0 °F 69% 29.89 in 10.0 mi North 3.5 mph - N/A   Overcast
11:53 PM 26.1 °F - 19.0 °F 75% 29.85 in 10.0 mi Calm Calm - N/A   Partly Cloudy